Location: New Frontier Mobile Home Park
(32.8448°N, 116.9675°W)
Time: 21:56:54
(UTC+00:00)

Cosmos 2074 Rocket - Pass Details

Date: 14 July 2020
Orbit: 967 x 986 km, 82.9° (Epoch: 05 August)

Event Time Altitude Azimuth Distance (km) Brightness Sun altitude
Exits shadow 04:19:32 20° 150° (SSE) 2,085 5.2 -15.3°
Maximum altitude 04:23:25 42° 90° (E) 1,351 4.4 -15.9°
Drops below altitude 10° 04:29:12 10° 21° (NNE) 2,713 6.6 -16.9°
Sets 04:31:49 0° 15° (NNE) 3,662 7.4 -17.3°
